STARLINK-4139 (52879 NORAD) Tracking and Keplerian Element Data

This shows tracking and keplerian element data for the satellite.

Feedback or suggestion? Click here.




ElementValue
Catalog52879
NameSTARLINK-4139
Epoch Orbit1304
Epoch Day248.25001157
Epoch Year2022
RAAN10.7758
Inclination53.2173
Eccentricity0.0001558
Argument of Perigee34.8986
Mean Anonmoly19.9156
Mean Motion15.57183631
Decay Rate-0.01061336
L11 52879U 22062BB 22248.25001157 -.01061336 00000+0 -15766-1 0 9999
L22 52879 53.2173 10.7758 0001558 34.8986 19.9156 15.57183631 13048

Live tracking and technical data element details for STARLINK-4139 (NORAD 52879). STARLINK-4139 can be tracked NOW for your location showing map with azimuth and elevation plus other details from your city location.

Track the satellite on the map from your city or location and see movement details for azimuth, elevation, latitude, longitude, range, height, and movement on the map or in text.







IsCatalogInMostPopularTable: catalog: 52879, numindb: 6
Update: records affected: 1



GetName: 52879 STARLINK-4139

Hit Count: updated at: Sun, 25 Sep 2022 07:14:16 GMT